Météo par heure à Kyslivka

Ce jour, 24 Juillet, Samedi

Heure Température Précipitation Vent Pression Humidité
00:00 +17°C° 0 mm 2 m/s 743 mmHg 73%
01:00 +17°C° 0 mm 2 m/s 743 mmHg 72%
02:00 +17°C° 0 mm 2 m/s 743 mmHg 72%
03:00 +18°C° 0 mm 2 m/s 743 mmHg 72%
04:00 +18°C° 0 mm 2 m/s 743 mmHg 71%
05:00 +18°C° 0 mm 2 m/s 743 mmHg 71%
06:00 +19°C° 0 mm 2 m/s 743 mmHg 71%
07:00 +19°C° 0 mm 2 m/s 743 mmHg 71%
08:00 +20°C° 0 mm 2 m/s 744 mmHg 72%
09:00 +21°C° 0 mm 2 m/s 744 mmHg 69%
10:00 +21°C° 0 mm 2 m/s 744 mmHg 65%
11:00 +23°C° 0 mm 2 m/s 744 mmHg 62%
12:00 +24°C° 0 mm 2 m/s 744 mmHg 57%
13:00 +25°C° 0 mm 2 m/s 744 mmHg 52%
14:00 +26°C° 0 mm 2 m/s 744 mmHg 47%
15:00 +26°C° 0 mm 2 m/s 744 mmHg 48%
16:00 +26°C° 0 mm 2 m/s 744 mmHg 49%
17:00 +26°C° 0 mm 2 m/s 744 mmHg 50%
18:00 +24°C° 0 mm 2 m/s 745 mmHg 54%
19:00 +23°C° 0 mm 2 m/s 745 mmHg 58%
20:00 +22°C° 0 mm 1 m/s 745 mmHg 61%
21:00 +22°C° 0 mm 1 m/s 745 mmHg 61%
22:00 +21°C° 0 mm 1 m/s 745 mmHg 62%
23:00 +21°C° 0 mm 1 m/s 745 mmHg 62%

Demain, 25 Juillet, Dimanche

Heure Température Précipitation Vent Pression Humidité
00:00 +21°C° 0 mm 1 m/s 745 mmHg 61%
01:00 +21°C° 0 mm 1 m/s 745 mmHg 61%
02:00 +21°C° 0 mm 1 m/s 745 mmHg 61%
03:00 +21°C° 0 mm 1 m/s 746 mmHg 61%
04:00 +19°C° 0 mm 0 m/s 746 mmHg 61%
05:00 +19°C° 0 mm 0 m/s 746 mmHg 61%
06:00 +20°C° 0 mm 0 m/s 746 mmHg 62%
07:00 +20°C° 0 mm 0 m/s 746 mmHg 64%
08:00 +21°C° 0 mm 0 m/s 747 mmHg 65%
09:00 +22°C° 0 mm 0 m/s 747 mmHg 59%
10:00 +25°C° 0 mm 1 m/s 747 mmHg 54%
11:00 +26°C° 0 mm 1 m/s 747 mmHg 49%
12:00 +26°C° 0 mm 1 m/s 747 mmHg 46%
13:00 +27°C° 0 mm 1 m/s 747 mmHg 44%
14:00 +28°C° 0 mm 1 m/s 747 mmHg 41%
15:00 +27°C° 0 mm 1 m/s 747 mmHg 44%
16:00 +27°C° 0 mm 1 m/s 747 mmHg 48%
17:00 +26°C° 0 mm 1 m/s 747 mmHg 52%
18:00 +25°C° 0 mm 1 m/s 747 mmHg 52%
19:00 +24°C° 0 mm 1 m/s 747 mmHg 52%
20:00 +22°C° 0 mm 0 m/s 747 mmHg 51%
21:00 +23°C° 0 mm 1 m/s 747 mmHg 51%
22:00 +23°C° 0 mm 1 m/s 747 mmHg 52%
23:00 +23°C° 0 mm 1 m/s 747 mmHg 52%

Après-demain, 26 Juillet, Lundi

Heure Température Précipitation Vent Pression Humidité
00:00 +22°C° 0 mm 1 m/s 747 mmHg 55%
01:00 +20°C° 0 mm 2 m/s 747 mmHg 58%
02:00 +20°C° 0 mm 2 m/s 747 mmHg 60%
03:00 +20°C° 0 mm 2 m/s 747 mmHg 62%
04:00 +19°C° 0 mm 2 m/s 747 mmHg 64%
05:00 +19°C° 0 mm 2 m/s 748 mmHg 65%
06:00 +21°C° 0 mm 2 m/s 748 mmHg 64%
07:00 +23°C° 0 mm 2 m/s 748 mmHg 62%
08:00 +24°C° 0 mm 2 m/s 748 mmHg 61%
09:00 +25°C° 0 mm 2 m/s 748 mmHg 57%
10:00 +27°C° 0 mm 2 m/s 748 mmHg 52%
11:00 +28°C° 0 mm 2 m/s 748 mmHg 48%
12:00 +28°C° 0 mm 2 m/s 748 mmHg 46%
13:00 +29°C° 0 mm 2 m/s 748 mmHg 44%
14:00 +29°C° 0 mm 2 m/s 748 mmHg 42%
15:00 +29°C° 0 mm 2 m/s 748 mmHg 45%
16:00 +28°C° 0 mm 2 m/s 747 mmHg 48%
17:00 +28°C° 0 mm 2 m/s 747 mmHg 51%
18:00 +26°C° 0 mm 2 m/s 747 mmHg 56%
19:00 +24°C° 0 mm 2 m/s 747 mmHg 61%
20:00 +23°C° 0 mm 2 m/s 747 mmHg 66%
21:00 +21°C° 0 mm 2 m/s 747 mmHg 66%
22:00 +21°C° 0 mm 2 m/s 747 mmHg 65%
23:00 +20°C° 0 mm 2 m/s 748 mmHg 64%

27 Juillet, Mardi

Heure Température Précipitation Vent Pression Humidité
00:00 +20°C° 0 mm 2 m/s 747 mmHg 64%
01:00 +19°C° 0 mm 2 m/s 747 mmHg 65%
02:00 +19°C° 0 mm 2 m/s 747 mmHg 66%
03:00 +19°C° 0 mm 2 m/s 747 mmHg 66%
04:00 +19°C° 0 mm 2 m/s 747 mmHg 67%
05:00 +19°C° 0 mm 3 m/s 747 mmHg 68%
06:00 +21°C° 0 mm 3 m/s 747 mmHg 65%
07:00 +22°C° 0 mm 3 m/s 748 mmHg 62%
08:00 +25°C° 0 mm 4 m/s 748 mmHg 59%
09:00 +26°C° 0 mm 4 m/s 748 mmHg 54%
10:00 +28°C° 0 mm 4 m/s 748 mmHg 50%
11:00 +29°C° 0 mm 4 m/s 748 mmHg 46%
12:00 +30°C° 0 mm 4 m/s 747 mmHg 44%
13:00 +32°C° 0 mm 4 m/s 747 mmHg 42%
14:00 +32°C° 0 mm 4 m/s 747 mmHg 40%
15:00 +32°C° 0 mm 4 m/s 747 mmHg 42%
16:00 +31°C° 0 mm 3 m/s 747 mmHg 44%
17:00 +31°C° 0 mm 3 m/s 746 mmHg 46%
18:00 +29°C° 0 mm 3 m/s 746 mmHg 50%
19:00 +27°C° 0 mm 3 m/s 746 mmHg 54%
20:00 +25°C° 0 mm 3 m/s 746 mmHg 58%
21:00 +24°C° 0 mm 3 m/s 746 mmHg 57%
22:00 +24°C° 0 mm 3 m/s 746 mmHg 56%
23:00 +22°C° 0 mm 3 m/s 746 mmHg 55%

28 Juillet, Mercredi

Heure Température Précipitation Vent Pression Humidité
00:00 +22°C° 0 mm 3 m/s 746 mmHg 54%
01:00 +21°C° 0 mm 4 m/s 745 mmHg 53%
02:00 +21°C° 0 mm 4 m/s 745 mmHg 53%
03:00 +21°C° 0 mm 4 m/s 745 mmHg 55%
04:00 +20°C° 0 mm 4 m/s 745 mmHg 57%
05:00 +20°C° 0 mm 3 m/s 744 mmHg 59%
06:00 +21°C° 0 mm 4 m/s 744 mmHg 59%
07:00 +23°C° 0 mm 4 m/s 745 mmHg 58%
08:00 +26°C° 0 mm 4 m/s 745 mmHg 58%
09:00 +27°C° 0 mm 5 m/s 744 mmHg 56%
10:00 +27°C° 0 mm 6 m/s 744 mmHg 54%
11:00 +28°C° 0 mm 7 m/s 744 mmHg 53%
12:00 +28°C° 0 mm 7 m/s 744 mmHg 53%
13:00 +29°C° 0 mm 7 m/s 743 mmHg 53%
14:00 +29°C° 0 mm 7 m/s 743 mmHg 54%
15:00 +30°C° 0 mm 6 m/s 743 mmHg 54%
16:00 +30°C° 0 mm 6 m/s 742 mmHg 55%
17:00 +32°C° 0 mm 5 m/s 742 mmHg 56%
18:00 +29°C° 0.1 mm 5 m/s 742 mmHg 59%
19:00 +28°C° 0.1 mm 6 m/s 741 mmHg 63%
20:00 +27°C° 0.1 mm 7 m/s 741 mmHg 66%
21:00 +25°C° 0.3 mm 5 m/s 741 mmHg 70%
22:00 +22°C° 0.3 mm 4 m/s 741 mmHg 74%
23:00 +21°C° 0.3 mm 2 m/s 741 mmHg 79%

29 Juillet, Jeudi

Heure Température Précipitation Vent Pression Humidité
00:00 +20°C° 0.1 mm 2 m/s 741 mmHg 81%
01:00 +20°C° 0.1 mm 3 m/s 741 mmHg 83%
02:00 +19°C° 0.1 mm 3 m/s 741 mmHg 85%
03:00 +19°C° 0 mm 3 m/s 741 mmHg 88%
04:00 +19°C° 0 mm 4 m/s 741 mmHg 91%
05:00 +19°C° 0 mm 4 m/s 741 mmHg 94%
06:00 +20°C° 0 mm 4 m/s 741 mmHg 90%
07:00 +20°C° 0 mm 4 m/s 741 mmHg 87%
08:00 +21°C° 0 mm 5 m/s 742 mmHg 83%
09:00 +22°C° 0 mm 5 m/s 742 mmHg 80%
10:00 +23°C° 0 mm 5 m/s 742 mmHg 77%
11:00 +25°C° 0 mm 5 m/s 742 mmHg 74%
12:00 +26°C° 0.1 mm 5 m/s 742 mmHg 69%
13:00 +27°C° 0.1 mm 5 m/s 742 mmHg 64%
14:00 +28°C° 0.1 mm 5 m/s 742 mmHg 60%
15:00 +28°C° 0.1 mm 5 m/s 742 mmHg 62%
16:00 +27°C° 0.1 mm 5 m/s 742 mmHg 64%
17:00 +27°C° 0.1 mm 5 m/s 742 mmHg 67%
18:00 +25°C° 0.1 mm 4 m/s 742 mmHg 71%
19:00 +24°C° 0.1 mm 3 m/s 743 mmHg 76%
20:00 +22°C° 0.1 mm 3 m/s 743 mmHg 80%
21:00 +21°C° 0 mm 3 m/s 743 mmHg 83%
22:00 +21°C° 0 mm 2 m/s 743 mmHg 85%
23:00 +20°C° 0 mm 2 m/s 743 mmHg 87%
Voir plus

Nous avons besoin de votre consentement

Meteoprog et ses fournisseurs de services peuvent stocker et accéder à des données personnelles telles que des cookies, des identifiants d'appareils ou d'autres technologies similaires sur votre appareil et traiter ces données pour personnaliser le contenu et les publicités, ainsi que pour fournir des fonctionnalités de médias sociaux et analyser le trafic.

  • Stocker et/ou accéder à des informations sur votre appareil

    Des cookies, des identifiants d'appareils ou d'autres informations peuvent être stockés ou accessibles sur votre appareil aux fins indiquées ci-dessus.

  • Annonces et contenus personnalisés, mesure des annonces et des contenus, connaissance de l'audience et développement de produits

    Les annonces et le contenu peuvent être personnalisés en fonction d'un profil. D'autres données peuvent être ajoutées pour mieux personnaliser les annonces et le contenu. Les performances des publicités et du contenu peuvent être mesurées. Il est possible d'obtenir des informations sur le public qui a vu les publicités et le contenu. Ces données peuvent être utilisées pour développer ou améliorer l'expérience de l'utilisateur, les systèmes et les logiciels.

En cliquant sur "J'accepte", vous autorisez l'utilisation de cookies, des identifiants d'appareils, des balises web ou d'autres technologies similaires. Vos paramètres peuvent être modifiés dans le navigateur de votre appareil.

Dans certains cas, des intérêts légitimes peuvent être invoqués plutôt qu'un consentement. Vous pouvez en savoir plus à ce sujet dans notre Politique de confidentialité et de cookies.